• Join FlightAware (Why Join?)
  • Login
  • US Flag 
04:15PM EDT


 

Airport Tracker/Info


-or-


 

Live Flight TrackerFlight Track Log ✈ UAL4596 ✈ 21-Apr-2013 ✈ KIAH - KPNS

Flight Track Log - Related Links

Times and Time Zones

All times are in EDT time to prevent confusion due to time zone crossing. See the UAL4596 flight status page for this flight to view local times or setup timezone preferences in your user account.

Time Position Orientation Groundspeed Altitude Reporting Facility
EDT Latitude Longitude Course Direction KTS MPH feet Rate Location/Type
08:11AM 29.9681 -95.3453 97° East 168 193 700  Level Houston Center
08:12AM 29.9564 -95.3297 131° Southeast 166 191 1,800 2,220 Climbing Houston Center
08:13AM 29.9236 -95.2711 123° Southeast 238 274 3,900 2,280 Climbing Houston Center
08:14AM 29.8917 -95.1978 117° Southeast 260 299 6,500 2,580 Climbing Houston Center
08:15AM 29.9086 -94.7697 95° East  Level FlightAware Approximate
08:15AM 29.8653 -95.1239 112° Southeast 272 313 9,200  Level Houston Center
08:16AM 29.8957 -94.6279 97° East  Level FlightAware Approximate
08:16AM 29.8647 -95.0275 90° East 295 339 11,700  Level Houston Center
08:17AM 29.8653 -94.9203 90° East 323 372 13,600 2,160 Climbing Houston Center
08:18AM 29.8650 -94.8078 90° East 344 396 16,200 2,220 Climbing Houston Center
08:19AM 29.8644 -94.6956 90° East 349 402 18,200 1,680 Climbing Houston Center
08:20AM 29.8647 -94.5725 90° East 373 429 19,700 1,380 Climbing Houston Center
08:21AM 29.8636 -94.4367 91° East 411 473 21,100 1,320 Climbing Houston Center
08:22AM 29.8628 -94.2942 90° East 436 502 22,400 1,380 Climbing Houston Center
08:23AM 29.8561 -94.1250 93° East 452 520 24,000 1,440 Climbing Houston Center
08:24AM 29.8600 -93.9742 88° East 468 539 25,400 1,320 Climbing Houston Center
08:25AM 29.8819 -93.8244 80° East 476 548 26,700 1,320 Climbing Houston Center
08:26AM 29.9092 -93.6753 78° East 477 549 28,100 1,320 Climbing Houston Center
08:27AM 29.9344 -93.5225 79° East 485 558 29,400 1,260 Climbing Houston Center
08:28AM 29.9611 -93.3711 78° East 488 562 30,700 780 Climbing Houston Center
08:29AM 29.9953 -93.1786 78° East 517 595 31,000 120 Climbing Houston Center
08:30AM 30.0225 -93.0069 80° East 547 629 31,000  Level Houston Center
08:31AM 30.0522 -92.8358 79° East 546 628 31,000  Level Houston Center
08:32AM 30.0817 -92.6628 79° East 552 635 31,000  Level Houston Center
08:33AM 30.1097 -92.4925 79° East 545 627 31,000  Level Houston Center
08:34AM 30.1381 -92.3206 79° East 546 628 31,000  Level Houston Center
08:35AM 30.1661 -92.1486 79° East 547 629 31,000  Level Houston Center
08:36AM 30.1944 -91.9761 79° East 547 629 31,000  Level Houston Center
08:37AM 30.2283 -91.7722 79° East 551 634 31,000  Level Houston Center
08:38AM 30.2564 -91.6022 79° East 544 626 31,000  Level Houston Center
08:39AM 30.2853 -91.4319 79° East 543 625 31,000  Level Houston Center
08:40AM 30.3100 -91.2592 81° East 544 626 31,000  Level Houston Center
08:41AM 30.3367 -91.0894 80° East 540 621 31,000  Level Houston Center
08:42AM 30.3617 -90.9192 80° East 538 619 31,000  Level Houston Center
08:43AM 30.3883 -90.7489 80° East 540 621 31,000  Level Houston Center
08:44AM 30.4128 -90.5786 81° East 536 617 31,000  Level Houston Center
08:45AM 30.4392 -90.4081 80° East 536 617 31,000 -780 Level Houston Center
08:46AM 30.4639 -90.2394 80° East 530 610 29,500 -1,560 Descending Houston Center
08:47AM 30.4886 -90.0753 80° East 515 593 27,900 -1,560 Descending Houston Center
08:48AM 30.5111 -89.9147 81° East 503 579 26,400 -1,560 Descending Houston Center
08:49AM 30.5339 -89.7561 80° East 491 565 24,800 -1,620 Descending Houston Center
08:50AM 30.5569 -89.5950 81° East 497 572 23,200 -1,620 Descending Houston Center
08:51AM 30.5786 -89.4378 81° East 494 568 21,600 -1,560 Descending Houston Center
08:52AM 30.5981 -89.2961 81° East 445 512 20,100 -1,560 Descending Houston Center
08:53AM 30.6150 -89.1672 81° East 408 470 18,500 -1,440 Descending Houston Center
08:54AM 30.6317 -89.0411 81° East 395 455 17,200 -1,500 Descending Houston Center
08:55AM 30.6486 -88.8950 82° East 400 460 15,500 -1,680 Descending Houston Center
08:56AM 30.6358 -88.7683 97° East 398 458 13,900 -1,560 Descending Houston Center
08:57AM 30.6247 -88.6453 96° East 389 448 12,400 -1,380 Descending Houston Center
08:58AM 30.6128 -88.5258 97° East 380 437 11,100 -660 Descending Houston Center
08:59AM 30.6014 -88.4086 96° East 370 426 11,100  Level Houston Center
09:00AM 30.5903 -88.2947 96° East 362 417 11,100 -60 Level Houston Center
09:02AM 30.5756 -88.1481 97° East 383 441 11,000  Descending Houston Center
09:03AM 30.5631 -88.0261 97° East 385 443 11,100  Climbing Houston Center
09:04AM 30.5506 -87.9061 97° East 379 436 11,100 -240 Level Houston Center
09:04AM 30.5386 -87.8194 99° East 377 434 10,700 -660 Descending Jacksonville Center
09:05AM 30.5267 -87.6983 97° East 353 406 10,000 -660 Descending Jacksonville Center
09:06AM 30.5175 -87.6039 96° East 289 333 9,400 -1,140 Descending Jacksonville Center
09:07AM 30.5067 -87.5044 97° East 272 313 7,700 -1,800 Descending Jacksonville Center
09:08AM 30.4847 -87.4192 107° East 264 304 5,600 -2,280 Descending Jacksonville Center
09:09AM 30.4664 -87.3461 106° East 244 281 3,200 -2,400 Descending Jacksonville Center